Probability
0 0 0 0 0 0 0 0 0 0 0 0 0 0 0 0 0 3 0 0 0 0 0 0 0 0 0 3 3 3 6 6 3 0 3 3 6 6 3 0 0 3 6 6
0 0 0 0 0 0 0 0 0 0 0 0 0 0 0 0 3 3 3 0 0 0 0 0 0 0 3 6 3 3 3 0 3 3 10 10 6 3 0 3 3 3 3 6
0 0 0 0 0 0 0 0 0 0 0 0 0 0 0 0 3 3 3 3 0 0 0 0 0 0 3 6 6 0 0 0 10 10 10 3 3 3 0 0 3 3 3 3
0 0 0 0 0 0 0 0 0 0 0 0 0 0 0 0 0 3 0 0 0 0 0 0 0 0 3 3 3 0 0 6 3 3 0 3 3 0 3 0 0 0 3 3
0 0 0 0 0 0 0 0 0 0 0 0 0 0 0 0 0 0 3 3 3 0 0 0 0 0 3 3 0 0 0 3 3 3 3 3 3 3 3 0 0 0 0 0
0 0 0 0 0 0 0 0 0 0 0 0 0 0 0 0 0 0 0 3 3 0 0 0 0 3 3 3 0 0 3 0 0 0 3 3 3 3 3 0 0 0 0 0
0 0 0 0 0 0 0 0 0 0 0 0 0 0 0 0 0 3 0 0 0 0 0 0 3 3 0 3 0 3 0 0 0 0 3 3 3 3 3 0 0 0 0 0
0 0 0 0 0 0 0 0 0 0 0 0 0 0 0 0 0 0 0 0 0 0 0 0 0 3 3 0 0 0 0 0 0 0 3 3 3 3 3 0 0 0 0 0
0 0 0 0 0 0 0 0 0 0 0 0 0 0 0 0 0 0 0 0 0 0 0 0 0 0 0 0 0 0 0 0 0 0 0 0 0 0 0 0 0 0 0 0
0 0 0 0 0 0 0 0 0 0 0 0 0 0 0 0 0 0 0 0 0 0 0 0 0 0 0 0 0 0 0 0 0 0 0 0 3 0 0 0 0 0 0 0
0 0 0 0 0 0 0 0 0 0 0 0 0 0 0 0 0 0 0 0 0 0 0 0 0 0 0 0 0 0 0 0 0 0 0 3 0 0 0 0 0 0 0 0
0 0 0 0 0 0 0 0 0 0 0 0 0 0 0 0 0 0 0 0 0 0 0 0 0 0 0 0 0 0 0 0 0 0 0 0 0 0 0 0 0 0 0 0
0 0 0 0 0 0 0 0 0 0 0 0 0 0 0 0 0 0 0 0 0 0 0 0 0 0 0 0 0 0 0 0 0 0 0 0 3 3 0 0 0 0 0 0
0 0 0 0 0 0 0 0 0 0 0 0 0 0 0 0 0 0 0 0 0 0 0 0 0 0 0 0 0 0 0 0 0 0 0 0 0 0 0 0 0 0 0 0
0 0 0 0 0 0 0 0 0 0 0 0 0 0 0 0 0 0 0 0 0 0 0 0 0 0 0 0 0 0 0 0 0 0 0 0 3 0 0 0 0 0 0 0
0 0 0 0 0 0 0 0 0 0 0 0 0 0 0 0 0 0 0 0 0 0 0 0 0 0 0 0 0 0 0 0 0 0 0 0 0 0 0 0 0 0 0 0
0 0 0 0 0 0 0 0 0 0 0 0 0 0 0 0 0 0 0 0 0 0 0 0 0 0 0 0 3 3 0 0 0 0 0 0 0 0 0 0 0 0 0 0
0 0 0 0 0 0 0 0 0 0 0 0 0 0 0 0 0 0 0 0 0 0 0 0 0 0 3 3 3 3 3 0 0 0 0 0 0 0 0 0 0 0 0 0
0 0 0 0 0 0 0 0 0 0 0 0 0 0 0 0 0 0 0 0 0 0 0 0 0 3 3 3 3 3 3 3 0 0 0 0 0 0 0 0 0 0 0 0
0 0 0 0 0 0 0 0 0 0 0 0 0 0 0 0 0 0 0 0 0 0 0 0 0 0 3 3 3 3 3 3 3 0 0 0 0 0 0 0 0 0 0 0
0 0 0 0 0 0 0 0 0 0 0 0 0 0 0 0 0 0 0 0 0 0 0 0 0 0 0 0 0 3 3 3 3 0 0 0 0 0 0 0 0 0 0 0
0 0 0 0 0 0 0 0 0 0 0 0 0 0 0 0 0 0 0 0 0 0 0 0 0 0 0 0 0 0 0 0 0 0 0 0 0 0 0 0 0 0 0 0
0 0 0 0 0 0 0 0 0 0 0 0 0 0 0 0 0 0 0 0 0 0 0 0 0 0 0 0 0 0 0 0 0 0 0 0 0 0 0 0 0 0 0 0
0 0 0 0 0 0 0 0 0 0 0 0 0 0 0 0 0 0 0 0 0 0 0 0 0 0 0 0 0 0 0 0 0 0 0 0 0 0 0 0 0 0 0 0
0 0 0 0 0 0 0 0 0 0 0 0 0 0 0 0 0 0 0 0 0 0 0 0 0 0 0 0 0 0 0 0 0 0 0 0 0 0 0 0 0 0 0 0
0 0 0 0 0 0 0 0 0 0 0 0 0 0 0 0 0 0 0 0 0 0 0 0 0 0 0 0 0 0 0 0 0 0 0 0 0 0 0 0 0 0 0 0
0 0 0 0 0 0 0 0 0 0 0 0 0 0 0 0 0 0 0 0 0 0 0 0 0 0 0 0 0 0 0 0 0 0 0 0 0 0 0 0 0 0 0 0
Height
5757 5758 5758 5759 5760 5760 5761 5761 5763 5764 5765 5766 5766 5767 5767 5767 5768 5768 5768 5768 5768 5768 5768 5769 5769 5769 5769 5770 5770 5770 5770 5770 5770 5770 5770 5770 5770 5770 5770 5770 5770 5770 5770 5769
5750 5751 5751 5752 5753 5754 5754 5755 5756 5757 5758 5759 5759 5760 5760 5761 5761 5762 5762 5762 5762 5762 5762 5762 5762 5763 5763 5763 5763 5763 5764 5764 5764 5764 5764 5764 5764 5764 5764 5764 5764 5764 5763 5763
5744 5744 5744 5745 5747 5747 5747 5748 5749 5749 5752 5752 5752 5753 5754 5754 5755 5755 5755 5755 5755 5755 5756 5756 5756 5756 5756 5756 5756 5757 5757 5757 5757 5757 5757 5758 5758 5758 5758 5758 5758 5757 5757 5757
5737 5738 5737 5741 5740 5740 5740 5741 5741 5742 5743 5744 5745 5745 5746 5747 5747 5748 5748 5748 5749 5749 5749 5749 5749 5749 5750 5750 5750 5750 5750 5750 5751 5751 5751 5751 5751 5751 5751 5751 5751 5751 5751 5750
5730 5730 5731 5733 5733 5732 5733 5733 5734 5734 5735 5736 5737 5738 5739 5740 5740 5741 5741 5741 5741 5742 5742 5742 5742 5742 5742 5743 5743 5743 5743 5744 5744 5744 5744 5744 5745 5744 5744 5745 5745 5744 5744 5744
5724 5724 5725 5727 5726 5725 5726 5726 5727 5727 5727 5728 5729 5730 5732 5732 5733 5733 5734 5734 5734 5734 5735 5735 5735 5735 5735 5735 5736 5736 5736 5737 5737 5737 5737 5737 5738 5738 5738 5738 5737 5737 5737 5736
5717 5717 5717 5719 5718 5719 5720 5720 5720 5719 5720 5720 5721 5722 5724 5724 5724 5725 5726 5726 5726 5727 5727 5727 5727 5727 5728 5728 5728 5729 5729 5729 5730 5730 5730 5730 5730 5730 5730 5730 5730 5729 5729 5728
5711 5710 5713 5711 5711 5712 5712 5712 5712 5712 5712 5712 5713 5714 5715 5715 5716 5717 5717 5718 5718 5718 5719 5719 5719 5719 5720 5721 5721 5721 5721 5721 5722 5722 5722 5722 5722 5722 5722 5722 5722 5721 5721 5720
5705 5706 5705 5703 5703 5704 5704 5704 5704 5704 5705 5705 5705 5706 5707 5707 5708 5708 5709 5709 5710 5710 5711 5711 5711 5711 5712 5712 5713 5713 5713 5713 5713 5714 5714 5714 5714 5714 5714 5713 5713 5713 5712 5712
5697 5697 5697 5696 5696 5696 5696 5697 5697 5697 5697 5697 5697 5698 5698 5699 5699 5700 5700 5701 5701 5701 5702 5702 5702 5703 5703 5704 5704 5704 5705 5705 5705 5705 5705 5706 5706 5705 5705 5705 5704 5704 5704 5703
5689 5690 5689 5689 5689 5689 5689 5689 5689 5689 5689 5689 5689 5690 5690 5690 5690 5691 5692 5692 5692 5692 5693 5693 5693 5694 5694 5695 5695 5695 5696 5696 5696 5696 5696 5696 5697 5697 5696 5696 5696 5696 5695 5695
5682 5682 5682 5682 5681 5681 5681 5681 5681 5681 5681 5681 5681 5681 5681 5681 5682 5682 5682 5683 5683 5683 5684 5684 5684 5685 5685 5685 5685 5686 5687 5687 5687 5687 5687 5687 5687 5687 5687 5687 5687 5686 5686 5685
5674 5674 5674 5674 5674 5673 5673 5673 5673 5672 5673 5673 5673 5673 5673 5673 5673 5673 5673 5674 5674 5674 5674 5674 5674 5675 5675 5676 5676 5677 5677 5677 5677 5678 5678 5678 5678 5678 5678 5678 5677 5677 5676 5675
5667 5666 5666 5666 5666 5666 5665 5665 5665 5664 5664 5664 5664 5664 5664 5664 5664 5664 5664 5664 5664 5664 5664 5664 5665 5665 5665 5665 5666 5666 5667 5667 5668 5668 5668 5668 5668 5668 5668 5668 5668 5667 5667 5666
5659 5659 5658 5658 5658 5657 5657 5657 5657 5656 5656 5656 5655 5655 5655 5655 5655 5655 5655 5655 5654 5654 5654 5655 5655 5655 5655 5656 5656 5656 5657 5658 5658 5658 5658 5658 5658 5658 5658 5658 5657 5657 5657 5656
5651 5650 5650 5650 5649 5649 5649 5649 5649 5648 5647 5647 5647 5647 5646 5646 5645 5645 5645 5644 5644 5644 5644 5644 5645 5645 5646 5646 5646 5647 5647 5648 5648 5648 5648 5648 5648 5648 5648 5648 5647 5647 5646 5646
5643 5642 5642 5642 5641 5641 5641 5640 5640 5639 5639 5638 5638 5638 5637 5636 5636 5635 5635 5634 5634 5634 5634 5634 5635 5635 5635 5636 5636 5637 5637 5638 5638 5638 5638 5639 5639 5639 5638 5638 5637 5637 5636 5635
5635 5635 5634 5634 5633 5633 5632 5632 5631 5631 5630 5629 5629 5628 5627 5626 5626 5625 5625 5624 5624 5624 5624 5624 5625 5625 5625 5626 5626 5626 5627 5628 5628 5628 5628 5629 5629 5629 5628 5627 5627 5626 5625 5624
5627 5627 5626 5625 5625 5625 5624 5624 5623 5622 5621 5620 5619 5619 5618 5617 5617 5616 5615 5615 5615 5615 5615 5614 5615 5615 5615 5616 5616 5616 5617 5618 5618 5618 5619 5619 5619 5618 5618 5617 5616 5615 5614 5613
5620 5619 5618 5618 5617 5616 5616 5615 5614 5613 5612 5611 5610 5610 5609 5608 5607 5606 5606 5605 5605 5605 5605 5605 5605 5605 5606 5606 5606 5606 5607 5608 5608 5608 5608 5609 5608 5608 5607 5606 5606 5605 5604 5603
5612 5611 5610 5610 5609 5609 5607 5606 5606 5605 5603 5602 5602 5601 5600 5599 5598 5597 5596 5597 5596 5595 5595 5595 5595 5595 5596 5596 5596 5596 5597 5597 5598 5598 5598 5598 5598 5597 5597 5596 5595 5594 5593 5592
5604 5603 5602 5602 5601 5600 5599 5598 5597 5596 5595 5594 5593 5592 5591 5590 5589 5589 5588 5587 5587 5586 5586 5586 5586 5586 5586 5586 5586 5586 5586 5586 5587 5587 5587 5587 5587 5587 5586 5585 5584 5583 5582 5581
5596 5595 5594 5593 5593 5592 5591 5590 5589 5588 5587 5586 5585 5584 5583 5582 5581 5580 5580 5579 5578 5577 5577 5577 5576 5576 5576 5576 5576 5576 5576 5576 5577 5577 5576 5576 5576 5576 5575 5574 5573 5572 5571 5570
5588 5587 5586 5585 5584 5584 5583 5582 5581 5580 5579 5578 5577 5576 5575 5574 5573 5572 5571 5570 5569 5568 5568 5568 5567 5567 5567 5566 5566 5566 5566 5566 5566 5566 5565 5565 5565 5565 5564 5563 5562 5561 5560 5559
5579 5579 5578 5577 5576 5575 5575 5574 5573 5572 5571 5570 5569 5567 5566 5565 5564 5563 5562 5561 5561 5560 5559 5559 5558 5558 5557 5557 5556 5556 5555 5555 5555 5555 5555 5554 5554 5553 5553 5552 5551 5550 5550 5549
5571 5570 5569 5569 5568 5567 5566 5565 5565 5564 5563 5562 5560 5559 5558 5556 5555 5554 5553 5552 5552 5551 5550 5549 5549 5548 5547 5547 5546 5545 5545 5544 5544 5544 5543 5543 5542 5542 5541 5541 5540 5540 5539 5538
5562 5562 5561 5560 5559 5558 5558 5557 5556 5555 5554 5553 5552 5550 5549 5548 5546 5545 5544 5543 5542 5542 5541 5540 5539 5538 5537 5537 5536 5535 5534 5534 5533 5533 5532 5532 5531 5530 5530 5529 5529 5528 5528 5527
Wind_Speed
21 21 22 22 23 23 23 23 23 21 22 21 22 21 21 21 20 19 18 18 18 19 20 20 20 21 21 21 21 20 20 20 20 20 21 20 20 20 20 20 20 20 20 20
21 22 22 23 23 24 24 24 24 23 23 22 22 22 22 21 21 20 19 19 19 19 20 20 20 21 21 21 21 21 21 22 22 21 21 20 21 21 21 21 21 21 21 21
21 22 23 23 22 23 23 24 25 25 24 23 23 23 23 23 22 21 20 20 20 20 20 20 21 21 22 22 22 22 22 22 22 21 21 21 22 22 22 22 21 21 21 21
22 22 23 21 21 22 23 24 25 25 25 25 24 23 23 24 24 22 22 22 21 21 20 20 21 22 22 22 22 22 23 22 22 22 21 22 21 21 22 22 21 22 22 22
22 23 23 21 21 22 23 24 24 25 25 25 25 25 24 24 24 23 23 23 22 22 22 22 22 22 22 22 23 23 23 23 22 22 22 22 21 21 22 22 22 23 23 23
23 23 23 22 22 22 23 24 23 23 23 24 25 25 24 25 25 25 24 24 24 23 23 22 23 23 23 23 23 23 23 23 23 23 23 23 23 23 23 23 24 24 25 25
22 23 24 23 23 22 22 22 22 23 23 23 25 25 24 24 25 25 26 26 25 24 23 23 23 24 24 24 24 24 24 24 24 24 24 25 25 25 25 25 25 25 25 26
22 23 23 23 23 23 23 22 23 23 24 24 25 25 25 25 25 25 25 25 25 25 24 24 24 25 25 25 25 25 25 25 25 25 25 25 26 26 26 26 26 26 26 26
23 23 23 23 23 24 24 23 23 24 24 25 25 25 25 25 25 26 26 27 26 26 26 26 26 26 25 25 26 26 26 26 26 26 26 26 27 27 27 27 26 26 27 27
23 23 24 24 24 23 23 24 23 24 24 25 25 25 25 26 26 26 26 27 27 27 27 27 27 27 27 27 27 27 27 27 27 27 27 27 27 28 28 28 28 28 28 29
23 23 25 25 25 25 24 24 24 24 24 24 24 25 25 25 26 26 26 27 27 27 28 28 28 28 28 28 29 28 28 28 27 27 27 27 28 28 29 29 29 29 29 29
23 23 24 24 25 25 25 24 24 24 23 24 24 25 25 25 26 26 27 27 28 28 28 28 29 29 29 29 29 29 29 29 28 29 30 30 30 30 30 30 30 30 30 30
22 23 24 24 24 25 25 24 24 24 25 25 25 26 25 25 26 27 27 27 28 29 29 29 28 29 29 30 30 30 30 30 29 29 29 30 30 31 31 31 30 31 31 30
22 23 23 24 24 25 25 25 24 24 24 24 25 26 26 26 26 27 28 28 29 29 29 29 29 30 30 30 31 31 31 31 31 30 29 30 30 30 31 31 31 31 31 31
22 23 23 24 25 25 25 25 25 25 25 25 25 25 25 26 27 28 29 29 30 30 29 29 30 30 30 30 30 30 30 30 30 30 30 30 30 30 30 30 31 30 30 31
22 23 24 24 25 25 25 25 25 25 26 26 26 26 27 27 28 29 29 29 29 29 29 30 30 30 30 30 30 30 30 31 30 30 30 30 30 30 30 30 30 31 31 31
23 23 24 24 25 25 25 25 25 25 26 26 27 28 28 29 29 29 29 29 29 29 29 29 29 30 30 30 30 31 31 30 30 30 30 30 30 30 31 31 31 32 32 32
23 23 23 23 23 23 24 24 25 26 27 27 27 28 28 28 28 28 28 28 28 29 29 29 29 29 30 30 30 30 29 29 29 29 29 29 30 30 31 31 31 32 32 32
23 24 24 24 24 23 23 24 25 25 26 26 26 27 27 28 28 28 27 27 27 28 28 28 28 29 29 29 29 28 28 29 29 29 29 30 30 31 31 31 31 31 31 31
23 23 24 24 24 24 24 25 25 25 25 26 26 26 26 27 27 27 26 26 26 27 28 29 29 29 29 29 29 29 29 30 30 30 30 30 30 31 31 31 31 31 30 30
23 23 23 23 23 24 24 24 25 25 25 25 25 25 25 25 25 25 25 26 27 28 29 29 29 29 29 29 29 29 29 30 30 30 30 30 30 30 30 30 30 31 31 31
23 23 24 24 24 24 24 24 24 24 24 24 24 25 24 24 25 25 25 26 27 27 28 28 28 28 28 29 29 29 29 29 29 30 30 31 31 31 31 31 31 31 31 31
23 24 24 24 24 24 24 24 24 24 25 25 24 24 24 24 24 25 25 25 25 26 26 26 27 27 27 28 28 29 29 30 30 30 31 31 31 31 31 31 31 31 31 31
25 25 25 25 24 24 25 24 24 24 25 25 25 25 26 26 26 26 25 24 25 25 26 26 27 27 27 27 28 29 29 30 31 31 31 31 31 32 32 31 31 30 30 30
26 26 25 25 25 25 25 25 25 24 25 25 26 26 26 26 26 26 25 25 25 26 27 26 27 27 28 29 29 29 29 29 30 30 30 30 31 32 32 31 30 30 29 29
26 25 25 25 25 25 25 26 25 25 25 25 26 26 26 26 26 26 26 26 26 26 26 27 28 29 29 30 30 30 30 30 30 30 31 31 31 32 32 31 30 30 30 30
26 26 26 26 26 26 26 27 27 26 26 26 26 27 27 27 26 26 26 26 25 25 26 27 28 28 29 29 30 30 31 31 31 31 31 32 32 32 32 31 31 31 31 31
Wind_Direction
258 258 259 259 257 255 256 258 259 260 261 261 261 261 261 260 261 264 265 263 262 260 259 258 259 260 260 261 262 261 261 261 260 261 264 265 263 263 263 264 266 267 269 272
260 259 260 259 257 257 257 257 258 260 261 263 264 262 260 258 258 261 262 265 264 262 262 260 261 261 262 263 262 261 261 260 260 263 265 265 264 265 264 266 268 270 270 272
264 262 261 260 260 259 259 258 260 260 262 262 263 261 259 259 260 260 261 265 265 263 262 262 262 264 265 265 264 261 261 263 261 263 264 264 265 266 266 266 269 271 272 272
267 266 266 265 262 261 261 261 262 261 260 260 261 261 260 259 260 260 262 264 263 261 261 261 261 262 263 264 263 263 263 263 264 263 263 263 264 266 266 266 268 269 272 272
266 268 270 268 267 266 264 263 263 263 261 260 261 260 260 259 259 260 261 264 263 261 260 261 262 262 264 264 263 263 262 263 263 264 262 261 264 265 266 267 269 271 272 272
267 268 269 270 270 269 267 266 264 264 263 261 261 261 260 260 260 260 261 263 263 262 262 262 262 263 263 263 263 262 263 263 263 264 262 263 265 266 267 268 271 272 271 271
268 268 269 270 270 270 269 268 266 265 265 264 262 261 261 260 261 261 263 265 265 265 264 262 262 263 262 262 262 263 264 264 265 266 264 264 265 267 268 269 270 270 271 271
267 270 271 271 270 269 270 269 267 266 266 265 263 262 261 260 259 259 262 264 264 264 264 264 264 264 263 262 262 263 264 265 265 266 265 265 268 269 270 270 269 269 271 272
267 269 270 271 271 270 269 268 268 267 267 267 265 264 263 261 261 259 261 263 264 264 263 264 264 264 264 262 262 263 264 265 267 266 266 266 269 270 270 270 269 270 271 272
270 270 269 270 271 270 269 268 269 268 269 268 267 267 266 263 261 260 261 263 264 265 265 265 265 264 263 262 262 262 264 265 266 267 266 267 269 270 270 270 270 270 272 273
273 271 271 272 271 269 269 269 269 268 268 267 268 268 267 265 264 263 263 264 265 266 266 266 265 264 265 264 262 261 263 264 265 268 269 269 271 271 271 270 270 271 272 273
273 272 271 271 271 270 270 271 271 269 268 267 268 268 268 267 266 264 263 265 266 266 266 266 265 265 265 266 264 263 265 266 267 268 268 269 271 271 271 270 271 271 272 273
273 272 272 271 270 269 271 272 272 271 270 269 268 268 269 268 267 265 264 265 266 266 265 265 265 265 265 265 265 265 266 267 268 268 268 269 271 272 271 270 271 272 272 273
276 274 272 272 271 269 270 272 272 273 271 269 269 269 269 269 269 268 267 268 269 268 267 266 266 266 267 266 266 265 265 266 268 268 269 271 272 273 272 271 272 272 272 274
277 275 274 273 273 272 272 272 272 273 271 271 272 270 271 272 271 270 269 270 270 269 267 266 265 265 266 267 266 265 265 266 267 267 269 271 271 272 273 273 273 272 273 275
277 276 274 273 272 272 272 273 274 274 272 271 271 271 272 273 272 272 272 272 270 269 267 266 266 266 266 267 266 266 265 266 266 267 269 269 270 272 273 275 275 274 274 275
276 276 276 275 273 273 275 276 277 277 275 273 271 273 273 273 274 273 272 270 268 268 268 267 267 268 268 268 267 266 265 265 266 267 267 268 270 272 273 275 275 275 275 276
278 277 277 278 277 276 276 277 278 278 278 278 276 275 275 275 273 273 272 269 268 267 267 267 267 268 268 268 268 267 265 265 266 267 267 268 270 272 274 274 275 276 276 276
279 278 277 277 278 279 279 279 279 278 277 277 279 277 277 276 274 273 272 270 269 267 266 267 268 268 268 267 266 265 265 266 267 268 269 270 271 273 274 274 275 276 276 276
279 279 278 277 278 280 280 280 280 279 278 278 280 280 280 278 276 274 272 270 270 269 267 267 267 267 266 267 266 265 265 265 266 268 269 270 271 273 274 275 275 275 275 276
280 279 278 277 278 279 280 281 281 280 279 280 281 282 283 281 277 276 274 272 271 271 269 269 268 266 266 266 265 264 264 263 264 266 268 269 271 272 274 275 275 275 275 276
279 279 278 277 278 279 281 281 282 281 280 280 282 283 284 282 279 276 275 274 273 271 270 270 271 269 266 265 265 264 264 265 265 266 268 270 271 273 274 274 275 276 276 276
281 281 281 281 280 280 281 282 282 281 281 282 282 282 282 282 281 278 277 276 275 274 273 273 273 271 268 267 266 266 266 267 267 269 270 271 272 273 274 274 275 276 277 277
280 280 280 281 281 280 281 281 282 283 283 283 282 282 282 282 282 280 278 277 277 275 275 275 274 273 271 271 270 270 269 268 269 269 270 272 272 272 274 275 275 275 276 276
279 279 280 280 280 280 281 282 283 283 284 284 284 283 282 282 282 280 279 277 276 277 275 274 274 274 274 272 271 271 271 270 269 269 270 272 274 274 274 274 274 274 275 275
278 280 280 281 281 281 282 282 282 283 284 284 284 284 283 282 282 280 279 278 279 278 277 276 275 275 274 273 271 271 272 272 271 271 271 272 274 274 274 273 274 274 274 275
279 279 280 281 282 282 282 282 282 282 282 283 282 283 284 284 283 282 281 279 278 278 279 279 278 276 275 274 272 272 273 273 272 271 272 273 274 275 274 273 273 274 274 274